Location: Cucq
(50.4773°N, 1.6202°E)
Time: 08:13:59
(UTC+00:00)

NOSS 3-1 (A) - Pass Details

Date: 07 August 2020
Orbit: 745 x 1467 km, 63.4° (Epoch: 21 September)

Event Time Altitude Azimuth Distance (km) Brightness Sun altitude
Exits shadow 03:00:13 10° 188° (S) 2,374 5.1 -12.3°
Maximum altitude 03:05:17 41° 119° (ESE) 1,256 4.2 -11.8°
Drops below altitude 10° 03:11:08 10° 52° (NE) 2,755 7.4 -11.1°
Sets 03:14:05 0° 45° (NE) 3,828 8.9 -10.8°
